QPF
0.00 0.00 0.00 0.00 0.01 0.02 0.02 0.03 0.03 0.04 0.05 0.06 0.07 0.08 0.07 0.06 0.05 0.05 0.05 0.04 0.03 0.03 0.03 0.03 0.04 0.04 0.02 0.02 0.01 0.01 0.01 0.01 0.01 0.01 0.02 0.02 0.02 0.01 0.00 0.00 0.01 0.01 0.01
0.00 0.00 0.00 0.00 0.00 0.01 0.02 0.03 0.03 0.04 0.05 0.05 0.06 0.10 0.11 0.08 0.06 0.08 0.07 0.07 0.05 0.04 0.04 0.06 0.06 0.05 0.02 0.02 0.02 0.02 0.01 0.01 0.01 0.01 0.01 0.02 0.02 0.01 0.00 0.00 0.01 0.01 0.01
0.00 0.00 0.00 0.00 0.00 0.01 0.02 0.03 0.03 0.04 0.05 0.06 0.06 0.08 0.11 0.12 0.10 0.09 0.08 0.07 0.05 0.05 0.07 0.07 0.07 0.05 0.04 0.04 0.04 0.03 0.02 0.01 0.01 0.01 0.01 0.01 0.01 0.01 0.00 0.00 0.01 0.01 0.00
0.00 0.00 0.00 0.00 0.00 0.01 0.01 0.02 0.03 0.04 0.05 0.05 0.06 0.07 0.08 0.11 0.13 0.11 0.10 0.08 0.08 0.08 0.09 0.08 0.07 0.08 0.07 0.07 0.06 0.04 0.03 0.02 0.01 0.01 0.01 0.02 0.01 0.01 0.00 0.00 0.01 0.01 0.01
0.00 0.00 0.00 0.00 0.00 0.00 0.01 0.02 0.03 0.04 0.04 0.05 0.05 0.06 0.08 0.09 0.10 0.11 0.10 0.09 0.09 0.11 0.11 0.10 0.08 0.08 0.07 0.07 0.08 0.07 0.05 0.03 0.02 0.02 0.01 0.01 0.01 0.01 0.01 0.01 0.01 0.01 0.01
0.00 0.00 0.00 0.00 0.00 0.01 0.01 0.01 0.02 0.03 0.04 0.05 0.04 0.05 0.06 0.08 0.09 0.10 0.10 0.11 0.11 0.11 0.11 0.10 0.08 0.07 0.06 0.06 0.06 0.07 0.06 0.04 0.03 0.02 0.02 0.01 0.01 0.01 0.01 0.01 0.01 0.01 0.01
0.00 0.00 0.00 0.00 0.00 0.01 0.01 0.01 0.02 0.03 0.04 0.05 0.05 0.04 0.05 0.06 0.08 0.10 0.11 0.12 0.12 0.12 0.11 0.10 0.08 0.07 0.05 0.04 0.04 0.04 0.04 0.04 0.02 0.02 0.02 0.01 0.00 0.00 0.01 0.01 0.01 0.01 0.01
0.00 0.00 0.00 0.00 0.01 0.01 0.01 0.01 0.02 0.03 0.03 0.04 0.05 0.05 0.04 0.05 0.06 0.08 0.10 0.10 0.10 0.10 0.10 0.10 0.09 0.07 0.05 0.04 0.03 0.02 0.03 0.03 0.03 0.02 0.02 0.01 0.00 0.00 0.01 0.02 0.01 0.01 0.01
0.00 0.00 0.00 0.00 0.00 0.00 0.00 0.01 0.02 0.03 0.03 0.03 0.04 0.04 0.04 0.05 0.05 0.07 0.08 0.09 0.09 0.09 0.09 0.08 0.08 0.07 0.05 0.05 0.04 0.04 0.04 0.02 0.03 0.03 0.02 0.01 0.00 0.01 0.02 0.02 0.01 0.01 0.01
0.00 0.00 0.00 0.00 0.00 0.00 0.01 0.01 0.02 0.03 0.03 0.03 0.04 0.04 0.04 0.04 0.04 0.05 0.06 0.07 0.08 0.09 0.09 0.09 0.07 0.06 0.06 0.05 0.05 0.04 0.03 0.02 0.02 0.02 0.02 0.01 0.00 0.01 0.02 0.01 0.01 0.01 0.01
0.00 0.00 0.00 0.00 0.00 0.00 0.01 0.01 0.02 0.04 0.06 0.05 0.04 0.04 0.04 0.03 0.04 0.04 0.04 0.05 0.06 0.07 0.08 0.09 0.08 0.07 0.07 0.07 0.06 0.04 0.03 0.03 0.01 0.01 0.01 0.01 0.01 0.01 0.01 0.01 0.01 0.01 0.01
0.00 0.00 0.00 0.00 0.01 0.01 0.01 0.01 0.01 0.04 0.07 0.08 0.06 0.05 0.04 0.04 0.04 0.04 0.04 0.04 0.06 0.07 0.09 0.10 0.11 0.10 0.09 0.07 0.06 0.05 0.04 0.03 0.02 0.02 0.01 0.01 0.01 0.02 0.02 0.01 0.01 0.01 0.01
0.00 0.00 0.00 0.01 0.01 0.02 0.02 0.02 0.02 0.05 0.07 0.08 0.08 0.07 0.06 0.04 0.04 0.05 0.05 0.05 0.06 0.08 0.09 0.11 0.13 0.12 0.09 0.06 0.05 0.05 0.04 0.03 0.03 0.02 0.02 0.01 0.01 0.02 0.02 0.01 0.01 0.01 0.01
0.01 0.00 0.00 0.01 0.01 0.01 0.02 0.02 0.03 0.07 0.09 0.08 0.08 0.08 0.07 0.05 0.04 0.05 0.05 0.05 0.06 0.07 0.08 0.09 0.12 0.12 0.10 0.08 0.06 0.05 0.05 0.04 0.03 0.03 0.02 0.01 0.02 0.02 0.02 0.02 0.02 0.01 0.01
0.01 0.01 0.00 0.00 0.01 0.01 0.02 0.02 0.03 0.07 0.09 0.09 0.08 0.09 0.09 0.07 0.05 0.05 0.05 0.05 0.05 0.05 0.06 0.07 0.09 0.11 0.12 0.11 0.08 0.06 0.05 0.05 0.05 0.04 0.02 0.02 0.02 0.02 0.02 0.02 0.02 0.02 0.02
0.01 0.01 0.00 0.01 0.01 0.02 0.02 0.02 0.04 0.07 0.07 0.08 0.07 0.08 0.07 0.07 0.07 0.06 0.05 0.04 0.05 0.05 0.06 0.07 0.08 0.09 0.09 0.10 0.09 0.06 0.05 0.05 0.05 0.05 0.04 0.03 0.02 0.02 0.02 0.02 0.03 0.03 0.03
0.01 0.01 0.00 0.01 0.02 0.02 0.02 0.02 0.03 0.05 0.06 0.07 0.06 0.05 0.06 0.07 0.07 0.06 0.06 0.05 0.04 0.05 0.07 0.08 0.09 0.10 0.09 0.09 0.08 0.07 0.05 0.05 0.06 0.06 0.05 0.04 0.04 0.03 0.03 0.02 0.03 0.04 0.05
0.00 0.00 0.00 0.00 0.02 0.03 0.03 0.03 0.03 0.03 0.05 0.06 0.06 0.05 0.05 0.06 0.06 0.06 0.06 0.06 0.05 0.06 0.07 0.09 0.09 0.10 0.10 0.10 0.09 0.09 0.08 0.06 0.05 0.05 0.06 0.06 0.05 0.04 0.03 0.03 0.03 0.04 0.05
0.00 0.00 0.00 0.00 0.01 0.04 0.04 0.04 0.04 0.04 0.04 0.05 0.06 0.05 0.04 0.06 0.06 0.06 0.07 0.06 0.06 0.06 0.07 0.09 0.09 0.08 0.09 0.09 0.10 0.11 0.10 0.09 0.07 0.06 0.05 0.06 0.06 0.05 0.04 0.04 0.03 0.04 0.05
0.00 0.00 0.00 0.01 0.01 0.02 0.05 0.04 0.05 0.05 0.05 0.04 0.05 0.05 0.05 0.05 0.07 0.07 0.07 0.08 0.07 0.07 0.07 0.09 0.08 0.08 0.08 0.09 0.10 0.11 0.11 0.11 0.09 0.08 0.06 0.05 0.05 0.05 0.05 0.04 0.04 0.04 0.04
0.00 0.00 0.00 0.00 0.01 0.02 0.04 0.05 0.06 0.07 0.07 0.05 0.04 0.06 0.05 0.06 0.07 0.09 0.08 0.09 0.08 0.07 0.07 0.09 0.10 0.09 0.09 0.09 0.11 0.13 0.13 0.13 0.12 0.09 0.07 0.06 0.04 0.03 0.04 0.04 0.04 0.04 0.04
0.01 0.01 0.01 0.01 0.01 0.01 0.03 0.05 0.07 0.08 0.08 0.08 0.05 0.05 0.07 0.06 0.07 0.10 0.10 0.09 0.09 0.07 0.08 0.09 0.10 0.11 0.11 0.10 0.10 0.13 0.14 0.13 0.13 0.10 0.09 0.07 0.05 0.04 0.03 0.03 0.03 0.03 0.03
0.01 0.02 0.03 0.02 0.01 0.01 0.02 0.05 0.09 0.09 0.09 0.10 0.07 0.05 0.07 0.07 0.07 0.09 0.10 0.09 0.08 0.07 0.07 0.07 0.08 0.09 0.11 0.12 0.10 0.11 0.12 0.11 0.09 0.08 0.08 0.08 0.06 0.04 0.03 0.03 0.03 0.03 0.02
0.03 0.04 0.06 0.04 0.03 0.03 0.03 0.05 0.09 0.10 0.08 0.08 0.07 0.05 0.06 0.08 0.08 0.08 0.09 0.08 0.08 0.08 0.08 0.08 0.08 0.08 0.09 0.10 0.12 0.11 0.09 0.07 0.07 0.07 0.07 0.07 0.06 0.05 0.04 0.03 0.04 0.03 0.03
0.04 0.06 0.08 0.07 0.08 0.07 0.05 0.06 0.09 0.09 0.08 0.08 0.07 0.06 0.06 0.07 0.08 0.08 0.08 0.08 0.08 0.08 0.10 0.12 0.11 0.12 0.11 0.10 0.11 0.11 0.10 0.08 0.07 0.07 0.07 0.07 0.07 0.06 0.04 0.04 0.04 0.04 0.03
0.05 0.04 0.06 0.06 0.09 0.11 0.11 0.11 0.11 0.11 0.09 0.08 0.07 0.08 0.07 0.08 0.09 0.10 0.10 0.08 0.07 0.07 0.09 0.13 0.13 0.14 0.15 0.13 0.11 0.12 0.11 0.10 0.08 0.07 0.06 0.06 0.07 0.06 0.05 0.04 0.04 0.03 0.03
MSLP
1015.68 1015.55 1015.19 1014.73 1014.27 1013.89 1013.58 1013.34 1013.10 1012.83 1012.49 1012.06 1011.60 1011.13 1010.72 1010.40 1010.19 1010.08 1010.05 1010.05 1010.05 1010.03 1009.98 1009.93 1009.90 1009.90 1009.94 1010.03 1010.15 1010.29 1010.42 1010.53 1010.64 1010.73 1010.83 1010.93 1011.06 1011.19 1011.31 1011.41 1011.47 1011.50 1011.50
1015.70 1015.54 1015.20 1014.81 1014.45 1014.15 1013.93 1013.74 1013.53 1013.25 1012.88 1012.44 1011.95 1011.48 1011.07 1010.76 1010.56 1010.45 1010.39 1010.34 1010.28 1010.17 1010.04 1009.91 1009.79 1009.73 1009.74 1009.81 1009.93 1010.08 1010.23 1010.38 1010.52 1010.65 1010.79 1010.93 1011.08 1011.24 1011.37 1011.48 1011.54 1011.56 1011.55
1015.77 1015.57 1015.25 1014.92 1014.63 1014.41 1014.23 1014.07 1013.86 1013.57 1013.20 1012.74 1012.27 1011.81 1011.42 1011.13 1010.93 1010.79 1010.69 1010.56 1010.40 1010.19 1009.96 1009.73 1009.54 1009.44 1009.42 1009.48 1009.62 1009.79 1009.98 1010.16 1010.34 1010.50 1010.67 1010.84 1011.01 1011.17 1011.31 1011.42 1011.48 1011.50 1011.49
1015.81 1015.58 1015.29 1015.00 1014.77 1014.60 1014.46 1014.30 1014.09 1013.80 1013.41 1012.97 1012.51 1012.08 1011.73 1011.45 1011.25 1011.08 1010.91 1010.70 1010.43 1010.11 1009.77 1009.46 1009.22 1009.07 1009.04 1009.12 1009.27 1009.47 1009.69 1009.91 1010.11 1010.30 1010.48 1010.66 1010.83 1010.99 1011.13 1011.23 1011.29 1011.32 1011.32
1015.75 1015.51 1015.25 1015.03 1014.85 1014.72 1014.60 1014.45 1014.23 1013.92 1013.54 1013.11 1012.68 1012.29 1011.97 1011.72 1011.51 1011.30 1011.06 1010.77 1010.40 1009.99 1009.57 1009.19 1008.90 1008.74 1008.70 1008.78 1008.95 1009.17 1009.41 1009.64 1009.86 1010.06 1010.24 1010.41 1010.57 1010.72 1010.84 1010.93 1011.00 1011.04 1011.07
1015.58 1015.36 1015.15 1014.99 1014.87 1014.78 1014.68 1014.53 1014.30 1013.99 1013.60 1013.19 1012.79 1012.44 1012.15 1011.91 1011.70 1011.46 1011.17 1010.81 1010.37 1009.89 1009.41 1008.99 1008.67 1008.49 1008.44 1008.52 1008.68 1008.90 1009.14 1009.37 1009.58 1009.77 1009.94 1010.10 1010.24 1010.37 1010.48 1010.57 1010.64 1010.70 1010.77
1015.33 1015.16 1015.02 1014.93 1014.88 1014.83 1014.75 1014.60 1014.36 1014.04 1013.66 1013.25 1012.88 1012.55 1012.28 1012.05 1011.83 1011.57 1011.25 1010.84 1010.37 1009.85 1009.34 1008.90 1008.56 1008.36 1008.29 1008.33 1008.47 1008.65 1008.85 1009.06 1009.25 1009.42 1009.58 1009.72 1009.86 1009.97 1010.08 1010.17 1010.25 1010.34 1010.46
1015.07 1014.96 1014.90 1014.89 1014.91 1014.91 1014.85 1014.70 1014.45 1014.11 1013.73 1013.33 1012.96 1012.64 1012.38 1012.15 1011.92 1011.65 1011.31 1010.88 1010.39 1009.87 1009.36 1008.91 1008.55 1008.32 1008.20 1008.19 1008.26 1008.38 1008.52 1008.68 1008.84 1008.99 1009.15 1009.29 1009.43 1009.55 1009.66 1009.76 1009.87 1009.99 1010.14
1014.88 1014.84 1014.86 1014.93 1015.00 1015.03 1014.99 1014.83 1014.58 1014.23 1013.83 1013.42 1013.05 1012.73 1012.46 1012.22 1011.97 1011.69 1011.33 1010.91 1010.43 1009.91 1009.41 1008.96 1008.59 1008.31 1008.13 1008.03 1008.01 1008.03 1008.10 1008.20 1008.33 1008.47 1008.63 1008.80 1008.96 1009.11 1009.24 1009.36 1009.49 1009.64 1009.83
1014.81 1014.84 1014.92 1015.04 1015.15 1015.20 1015.15 1014.99 1014.72 1014.36 1013.95 1013.54 1013.15 1012.81 1012.52 1012.26 1011.99 1011.68 1011.32 1010.90 1010.43 1009.94 1009.45 1008.99 1008.59 1008.26 1007.99 1007.80 1007.66 1007.58 1007.57 1007.61 1007.70 1007.85 1008.04 1008.24 1008.45 1008.64 1008.81 1008.96 1009.11 1009.28 1009.49
1014.87 1014.94 1015.06 1015.20 1015.31 1015.36 1015.30 1015.12 1014.84 1014.47 1014.05 1013.63 1013.23 1012.88 1012.56 1012.26 1011.96 1011.63 1011.25 1010.83 1010.37 1009.89 1009.41 1008.95 1008.51 1008.12 1007.77 1007.46 1007.21 1007.03 1006.93 1006.91 1006.99 1007.15 1007.37 1007.63 1007.89 1008.14 1008.35 1008.53 1008.71 1008.89 1009.11
1015.02 1015.10 1015.22 1015.34 1015.43 1015.44 1015.36 1015.16 1014.86 1014.49 1014.08 1013.66 1013.26 1012.90 1012.56 1012.23 1011.89 1011.53 1011.13 1010.70 1010.24 1009.77 1009.29 1008.81 1008.34 1007.89 1007.45 1007.05 1006.70 1006.41 1006.23 1006.16 1006.22 1006.39 1006.66 1006.97 1007.30 1007.60 1007.86 1008.07 1008.26 1008.45 1008.68
1015.19 1015.25 1015.33 1015.41 1015.44 1015.40 1015.27 1015.05 1014.75 1014.39 1013.99 1013.60 1013.22 1012.86 1012.51 1012.16 1011.80 1011.40 1010.98 1010.53 1010.06 1009.58 1009.10 1008.61 1008.11 1007.61 1007.10 1006.61 1006.17 1005.80 1005.54 1005.42 1005.45 1005.63 1005.92 1006.27 1006.65 1007.00 1007.30 1007.55 1007.76 1007.96 1008.18
1015.27 1015.30 1015.33 1015.34 1015.30 1015.20 1015.02 1014.78 1014.48 1014.14 1013.78 1013.44 1013.09 1012.76 1012.42 1012.06 1011.67 1011.25 1010.81 1010.33 1009.85 1009.37 1008.88 1008.38 1007.86 1007.33 1006.77 1006.22 1005.70 1005.26 1004.93 1004.75 1004.74 1004.89 1005.18 1005.55 1005.95 1006.34 1006.68 1006.96 1007.19 1007.41 1007.64
1015.23 1015.22 1015.18 1015.12 1015.01 1014.85 1014.63 1014.37 1014.07 1013.77 1013.46 1013.17 1012.88 1012.59 1012.27 1011.92 1011.53 1011.10 1010.63 1010.14 1009.65 1009.16 1008.67 1008.18 1007.66 1007.11 1006.53 1005.94 1005.36 1004.85 1004.45 1004.19 1004.12 1004.21 1004.46 1004.81 1005.22 1005.62 1005.99 1006.30 1006.57 1006.81 1007.06
1015.03 1014.98 1014.90 1014.78 1014.62 1014.40 1014.15 1013.88 1013.59 1013.32 1013.07 1012.83 1012.60 1012.35 1012.07 1011.74 1011.35 1010.92 1010.44 1009.95 1009.46 1008.98 1008.51 1008.02 1007.52 1006.98 1006.40 1005.78 1005.17 1004.59 1004.11 1003.76 1003.59 1003.60 1003.77 1004.07 1004.44 1004.84 1005.23 1005.58 1005.90 1006.19 1006.48
1014.71 1014.64 1014.54 1014.38 1014.18 1013.94 1013.67 1013.39 1013.11 1012.86 1012.64 1012.44 1012.25 1012.04 1011.79 1011.48 1011.11 1010.68 1010.22 1009.74 1009.26 1008.80 1008.36 1007.91 1007.44 1006.93 1006.36 1005.73 1005.08 1004.45 1003.88 1003.43 1003.14 1003.03 1003.10 1003.32 1003.64 1004.02 1004.43 1004.83 1005.20 1005.56 1005.92
1014.32 1014.26 1014.15 1013.99 1013.78 1013.53 1013.25 1012.96 1012.68 1012.43 1012.21 1012.02 1011.84 1011.64 1011.40 1011.11 1010.75 1010.35 1009.90 1009.45 1009.00 1008.58 1008.18 1007.78 1007.36 1006.88 1006.34 1005.72 1005.05 1004.37 1003.72 1003.16 1002.74 1002.51 1002.45 1002.57 1002.83 1003.19 1003.61 1004.06 1004.51 1004.94 1005.38
1013.94 1013.89 1013.79 1013.65 1013.45 1013.20 1012.92 1012.61 1012.32 1012.04 1011.79 1011.57 1011.37 1011.15 1010.90 1010.60 1010.26 1009.87 1009.45 1009.03 1008.63 1008.26 1007.91 1007.57 1007.20 1006.77 1006.26 1005.66 1004.98 1004.26 1003.54 1002.89 1002.36 1002.00 1001.83 1001.85 1002.05 1002.39 1002.82 1003.31 1003.82 1004.34 1004.85
1013.60 1013.56 1013.49 1013.36 1013.18 1012.95 1012.66 1012.34 1012.00 1011.68 1011.37 1011.09 1010.82 1010.54 1010.26 1009.94 1009.59 1009.22 1008.83 1008.46 1008.11 1007.79 1007.50 1007.21 1006.90 1006.52 1006.05 1005.48 1004.80 1004.06 1003.30 1002.58 1001.96 1001.50 1001.24 1001.18 1001.32 1001.63 1002.07 1002.60 1003.17 1003.75 1004.33
1013.32 1013.28 1013.21 1013.10 1012.94 1012.71 1012.41 1012.07 1011.69 1011.30 1010.91 1010.54 1010.18 1009.83 1009.48 1009.13 1008.77 1008.40 1008.05 1007.71 1007.41 1007.15 1006.92 1006.69 1006.42 1006.10 1005.67 1005.13 1004.48 1003.74 1002.97 1002.21 1001.54 1001.02 1000.69 1000.58 1000.67 1000.96 1001.40 1001.94 1002.55 1003.17 1003.79
1013.07 1013.00 1012.91 1012.80 1012.63 1012.40 1012.09 1011.72 1011.30 1010.84 1010.37 1009.91 1009.46 1009.02 1008.60 1008.20 1007.82 1007.46 1007.13 1006.83 1006.58 1006.37 1006.18 1005.99 1005.78 1005.49 1005.11 1004.61 1003.99 1003.29 1002.53 1001.78 1001.10 1000.56 1000.20 1000.05 1000.12 1000.37 1000.80 1001.34 1001.96 1002.60 1003.22
1012.81 1012.67 1012.53 1012.38 1012.18 1011.93 1011.61 1011.22 1010.77 1010.26 1009.73 1009.19 1008.65 1008.14 1007.66 1007.21 1006.80 1006.44 1006.13 1005.86 1005.65 1005.47 1005.32 1005.17 1004.99 1004.74 1004.39 1003.94 1003.37 1002.72 1002.01 1001.30 1000.65 1000.13 999.77 999.60 999.64 999.87 1000.27 1000.79 1001.39 1002.01 1002.63
1012.48 1012.24 1012.01 1011.78 1011.54 1011.26 1010.93 1010.53 1010.06 1009.54 1008.97 1008.38 1007.78 1007.21 1006.68 1006.19 1005.76 1005.40 1005.10 1004.86 1004.67 1004.53 1004.40 1004.28 1004.12 1003.89 1003.58 1003.17 1002.66 1002.07 1001.43 1000.78 1000.19 999.70 999.36 999.19 999.22 999.42 999.78 1000.26 1000.82 1001.42 1002.02
1012.05 1011.68 1011.33 1011.01 1010.70 1010.38 1010.04 1009.64 1009.18 1008.66 1008.09 1007.48 1006.86 1006.25 1005.68 1005.17 1004.72 1004.35 1004.06 1003.84 1003.67 1003.55 1003.45 1003.35 1003.21 1003.01 1002.72 1002.36 1001.90 1001.37 1000.80 1000.22 999.69 999.25 998.93 998.78 998.79 998.96 999.29 999.73 1000.25 1000.82 1001.40
1011.53 1011.02 1010.53 1010.10 1009.70 1009.34 1008.97 1008.59 1008.16 1007.66 1007.11 1006.50 1005.87 1005.24 1004.64 1004.10 1003.64 1003.26 1002.98 1002.77 1002.64 1002.54 1002.47 1002.39 1002.27 1002.09 1001.84 1001.51 1001.10 1000.62 1000.12 999.60 999.13 998.73 998.45 998.30 998.30 998.45 998.75 999.16 999.65 1000.21 1000.80
Thickness
5740 5743 5743 5745 5748 5750 5753 5755 5757 5759 5760 5761 5762 5762 5762 5762 5762 5761 5761 5760 5759 5759 5758 5757 5756 5755 5754 5753 5752 5751 5750 5749 5748 5747 5746 5745 5744 5742 5741 5740 5738 5737 5736
5738 5740 5739 5741 5743 5745 5747 5749 5751 5753 5755 5756 5757 5758 5758 5758 5758 5758 5758 5757 5757 5756 5755 5754 5754 5753 5751 5750 5749 5748 5747 5746 5745 5744 5743 5742 5741 5740 5739 5737 5736 5734 5733
5735 5735 5735 5736 5737 5739 5741 5743 5746 5747 5749 5751 5752 5753 5754 5754 5754 5754 5754 5754 5754 5753 5753 5752 5751 5750 5749 5748 5746 5745 5744 5743 5742 5741 5741 5740 5739 5737 5736 5734 5733 5732 5730
5730 5730 5729 5730 5732 5734 5736 5738 5740 5742 5743 5745 5747 5748 5749 5749 5750 5750 5750 5751 5751 5750 5750 5749 5748 5747 5746 5745 5744 5742 5741 5740 5739 5739 5738 5737 5736 5735 5733 5732 5730 5729 5727
5725 5725 5724 5725 5726 5728 5730 5732 5733 5735 5737 5739 5741 5742 5744 5745 5745 5746 5746 5747 5747 5747 5746 5746 5745 5744 5744 5742 5741 5740 5738 5737 5737 5736 5736 5736 5734 5733 5731 5729 5727 5725 5723
5719 5719 5718 5719 5720 5722 5723 5725 5727 5729 5731 5733 5734 5736 5738 5739 5740 5741 5742 5742 5743 5742 5742 5742 5741 5741 5740 5739 5738 5737 5736 5735 5734 5734 5733 5733 5732 5730 5728 5726 5724 5722 5720
5712 5712 5712 5713 5714 5716 5717 5719 5720 5722 5724 5726 5728 5730 5732 5734 5735 5736 5736 5737 5737 5738 5738 5738 5737 5737 5737 5736 5735 5734 5733 5732 5732 5731 5731 5730 5729 5727 5725 5723 5721 5719 5717
5704 5705 5705 5706 5707 5708 5710 5712 5713 5715 5717 5720 5721 5723 5725 5727 5729 5730 5732 5732 5733 5733 5733 5734 5734 5733 5733 5733 5732 5731 5730 5730 5729 5729 5729 5728 5726 5725 5723 5720 5718 5716 5714
5697 5697 5697 5698 5699 5700 5702 5704 5706 5708 5710 5712 5714 5716 5718 5720 5723 5724 5726 5727 5727 5728 5728 5728 5729 5729 5729 5728 5728 5728 5727 5727 5727 5726 5726 5725 5724 5722 5720 5717 5715 5713 5711
5689 5689 5689 5690 5691 5693 5694 5697 5698 5700 5702 5705 5707 5709 5711 5713 5716 5718 5719 5721 5722 5723 5723 5724 5724 5724 5724 5724 5724 5724 5724 5724 5724 5724 5723 5722 5721 5719 5717 5714 5712 5710 5707
5680 5681 5681 5682 5683 5684 5686 5688 5690 5692 5694 5696 5699 5701 5704 5706 5708 5711 5713 5714 5715 5717 5718 5718 5719 5719 5719 5719 5720 5719 5719 5719 5720 5720 5720 5719 5718 5716 5714 5712 5709 5706 5704
5671 5672 5673 5673 5673 5675 5677 5679 5681 5683 5685 5687 5690 5692 5695 5697 5700 5702 5705 5706 5708 5710 5711 5712 5712 5713 5713 5714 5714 5714 5714 5714 5715 5717 5717 5716 5715 5713 5711 5709 5706 5703 5701
5663 5664 5664 5663 5664 5665 5666 5669 5671 5673 5675 5678 5680 5682 5685 5688 5690 5693 5695 5697 5699 5701 5703 5705 5705 5706 5707 5708 5708 5709 5709 5710 5711 5712 5712 5712 5711 5709 5707 5705 5703 5701 5698
5655 5654 5654 5654 5653 5654 5655 5657 5660 5663 5665 5668 5670 5672 5675 5677 5680 5682 5684 5687 5690 5692 5694 5696 5697 5699 5700 5701 5702 5703 5704 5705 5706 5707 5708 5708 5707 5705 5704 5702 5700 5698 5695
5646 5645 5644 5643 5643 5643 5644 5646 5648 5651 5654 5656 5659 5661 5663 5666 5669 5671 5673 5676 5679 5682 5684 5686 5688 5690 5692 5694 5695 5697 5698 5699 5700 5702 5702 5702 5702 5701 5700 5699 5697 5694 5692
5637 5635 5634 5633 5632 5632 5633 5634 5636 5638 5641 5643 5646 5649 5651 5653 5656 5659 5662 5665 5668 5671 5673 5676 5678 5680 5682 5685 5687 5689 5691 5692 5694 5696 5696 5696 5696 5696 5695 5694 5693 5691 5689
5628 5626 5625 5624 5623 5622 5622 5622 5624 5625 5628 5631 5633 5636 5638 5640 5643 5646 5649 5653 5657 5659 5662 5665 5667 5670 5672 5675 5677 5680 5683 5685 5687 5688 5689 5690 5690 5690 5690 5689 5689 5688 5686
5620 5617 5615 5614 5612 5611 5611 5611 5611 5613 5615 5617 5619 5621 5624 5625 5628 5632 5635 5639 5644 5647 5650 5653 5655 5657 5660 5663 5667 5670 5674 5677 5679 5681 5682 5683 5684 5684 5684 5684 5684 5683 5681
5611 5608 5605 5603 5601 5600 5599 5598 5598 5599 5600 5602 5604 5606 5608 5610 5613 5616 5620 5624 5629 5632 5636 5639 5643 5645 5648 5651 5655 5659 5663 5667 5671 5673 5674 5676 5678 5678 5679 5678 5678 5677 5676
5603 5599 5596 5593 5590 5588 5587 5585 5585 5585 5586 5587 5589 5590 5591 5594 5597 5600 5605 5609 5613 5617 5621 5625 5628 5631 5634 5638 5642 5646 5651 5656 5660 5663 5666 5669 5671 5672 5673 5673 5672 5671 5671
5593 5589 5585 5581 5578 5574 5572 5570 5570 5571 5572 5573 5574 5574 5576 5578 5581 5585 5589 5593 5598 5602 5607 5611 5615 5617 5620 5624 5626 5630 5637 5644 5649 5653 5657 5660 5663 5665 5666 5666 5666 5665 5665
5583 5578 5574 5570 5566 5562 5558 5556 5556 5557 5558 5558 5560 5560 5561 5563 5565 5569 5573 5577 5582 5588 5593 5597 5600 5603 5607 5610 5612 5613 5620 5628 5636 5643 5647 5650 5654 5656 5658 5659 5659 5659 5660
5573 5568 5565 5560 5556 5551 5547 5545 5545 5544 5544 5544 5545 5546 5548 5549 5551 5554 5559 5564 5568 5573 5579 5583 5587 5590 5593 5597 5601 5602 5606 5615 5621 5630 5635 5639 5644 5647 5649 5651 5652 5653 5653
5563 5558 5553 5549 5545 5541 5537 5534 5532 5531 5530 5531 5533 5535 5536 5537 5540 5542 5547 5552 5555 5560 5566 5570 5574 5577 5580 5584 5588 5594 5599 5605 5608 5615 5621 5627 5631 5636 5640 5643 5644 5646 5646
5554 5548 5543 5539 5535 5531 5528 5524 5521 5520 5519 5520 5521 5523 5525 5526 5529 5532 5536 5540 5544 5549 5554 5558 5562 5565 5569 5574 5578 5583 5587 5592 5599 5603 5609 5614 5619 5625 5630 5634 5636 5638 5639
5544 5538 5533 5529 5526 5521 5518 5515 5512 5510 5509 5510 5511 5512 5514 5516 5519 5522 5526 5530 5533 5538 5543 5547 5551 5554 5558 5563 5567 5573 5578 5582 5588 5592 5598 5603 5608 5615 5619 5624 5627 5629 5631